Location: Copper Breaks State Park
(34.1132°N, 99.7492°W)
Time: 01:11:13
(UTC-05:00)

SL-16 R/B - Visible Passes

Search period start: 29 May 2015 00:00
Search period end: 08 June 2015 00:00
Orbit: 984 x 1007 km, 99.2° (Epoch: 28 May)

Date Brightness Start Highest point End Pass type
(mag) Time Alt. Az. Time Alt. Az. Time Alt. Az.
29 May 5.4 03:25:26 10° ENE 03:26:18 10° ENE 03:27:38 10° NE visible
29 May 2.6 05:02:58 10° SSE 05:09:10 81° ENE 05:15:22 10° N visible
30 May 4.9 03:52:35 10° ESE 03:56:47 20° ENE 04:01:12 10° NNE visible
30 May 2.6 05:33:57 10° S 05:40:02 56° W 05:46:06 10° NNW visible
31 May 4.0 04:21:52 10° SE 04:27:23 36° ENE 04:32:59 10° N visible
01 Jun 2.9 04:51:59 10° SSE 04:58:06 66° ENE 05:04:14 10° N visible
02 Jun 5.1 03:42:21 10° E 03:45:49 16° ENE 03:49:34 10° NNE visible
02 Jun 2.5 05:22:45 10° S 05:28:55 70° WSW 05:35:06 10° NNW visible
03 Jun 4.3 04:11:14 10° SE 04:16:22 29° ENE 04:21:38 10° N visible
03 Jun 3.1 05:54:12 10° SSW 05:59:54 37° W 06:05:32 10° NNW visible
04 Jun 3.3 04:41:06 10° SSE 04:47:03 53° ENE 04:53:02 10° N visible
05 Jun 5.2 03:32:25 10° E 03:34:51 13° ENE 03:37:40 10° NE visible
05 Jun 2.5 05:11:38 10° SSE 05:17:50 85° WSW 05:24:02 10° NNW visible
06 Jun 4.6 04:00:41 10° ESE 04:05:22 24° ENE 04:10:13 10° NNE visible
06 Jun 2.8 05:42:50 10° S 05:48:45 46° W 05:54:38 10° NNW visible
07 Jun 3.7 04:30:16 10° SE 04:36:00 43° ENE 04:41:48 10° N visible
